Location: Bonny Doon Airfield
(37.0704°N, 122.1252°W)
Time: 06:58:42
(UTC-08:00)

BREEZE M DEB (TANK) - Visible Passes

Search period start: 22 December 2014 00:00
Search period end: 01 January 2015 00:00
Orbit: 343 x 13805 km, 49.6° (Epoch: 20 December)

Date Brightness Start Highest point End Pass type
(mag) Time Alt. Az. Time Alt. Az. Time Alt. Az.
22 Dec 5.8 20:11:03 10° WNW 20:21:44 29° NNW 20:21:44 29° NNW visible
23 Dec 6.0 17:04:36 10° WSW 17:47:59 65° NW 17:55:43 12° NE visible
24 Dec 5.5 19:32:34 10° W 19:47:27 34° NNW 19:48:29 33° N visible
26 Dec 5.4 18:52:58 10° W 19:12:21 38° NNW 19:15:07 29° NNE visible
27 Dec 6.5 21:05:07 10° NW 21:07:48 17° NW 21:07:48 17° NW visible
28 Dec 5.5 18:12:01 10° W 18:37:06 44° NNW 18:41:40 22° NE visible
29 Dec 6.0 20:28:21 10° WNW 20:34:18 24° NNW 20:34:18 24° NNW visible
30 Dec 5.8 17:29:37 10° W 18:01:41 49° NNW 18:08:08 14° NE visible
31 Dec 5.5 19:50:52 10° WNW 20:00:43 31° NNW 20:00:43 31° NNW visible
